Weather History for KFRM - November, 2012

Change the Weather History Date:

Tuesday, November 6, 2012

  Actual Average Record
Temperature  
Mean Temperature 42 °F -  
Max Temperature 44 °F 45 °F 71 °F (2004)
Min Temperature 39 °F 28 °F 0 °F (1991)
Degree Days  
Heating Degree Days 24    
Moisture  
Dew Point 35 °F    
Average Humidity 76    
Maximum Humidity 93    
Minimum Humidity 66    
Precipitation  
Precipitation 0.09 in - - ()
Sea Level Pressure  
Sea Level Pressure 29.89 in    
Wind  
Wind Speed 17 mph (WNW)    
Max Wind Speed 25 mph    
Max Gust Speed 33 mph    
Visibility 9 miles    
Events      
Averages and records for this station are not official NWS values.
T = Trace of Precipitation, MM = Missing Value Source: NWS Daily Summary

Daily Weather History Graph

Daily Weather History Graph

Search for Another Location

Airport or City:

Trip Planner

Search our weather history database for the weather conditions in past years. The results will help you decide how hot, cold, wet, or windy it might be!

Date:

Astronomy

Nov. 06, 2012 Rise Set
Actual Time 7:00 AM CST 5:01 PM CST
Civil Twilight 6:30 AM CST 5:31 PM CST
Nautical Twilight 5:56 AM CST 6:05 PM CST
Astronomical Twilight 5:22 AM CST 6:39 PM CST
Moon 11:43 PM CST (11/6) 12:51 PM CST (11/6)
Length of Visible Light 11h 01m
Length of Day
10h 00m
Waning Gibbous, 53% of the Moon is Illuminated
Nov 6
Waning Gibbous
Nov 6
Last Quarter
Nov 13
New
Nov 20
First Quarter
Nov 28
Full

Hourly Weather History & Observations

Time (CST) Temp. Windchill Dew Point Humidity Pressure Visibility Wind Dir Wind Speed Gust Speed Precip Events Conditions
12:15 AM 41.0 °F 32.8 °F 37.4 °F 87% 29.94 in 7.0 mi SSW 16.1 mph - N/A   Overcast
12:35 AM 41.0 °F 33.1 °F 37.4 °F 87% 29.93 in 7.0 mi South 15.0 mph 20.7 mph N/A   Overcast
12:55 AM 39.2 °F 30.5 °F 37.4 °F 93% 29.92 in 4.0 mi South 16.1 mph - N/A   Overcast
1:15 AM 41.0 °F 33.1 °F 37.4 °F 87% 29.92 in 5.0 mi SSW 15.0 mph - N/A   Overcast
1:35 AM 41.0 °F 32.8 °F 37.4 °F 87% 29.90 in 6.0 mi South 16.1 mph - N/A   Overcast
1:55 AM 39.2 °F 30.8 °F 37.4 °F 93% 29.90 in 5.0 mi South 15.0 mph - N/A   Overcast
2:15 AM 39.2 °F 31.6 °F 37.4 °F 93% 29.89 in 5.0 mi South 12.7 mph - N/A   Overcast
2:35 AM 41.0 °F 32.5 °F 37.4 °F 87% 29.88 in 7.0 mi South 17.3 mph - N/A   Overcast
2:55 AM 41.0 °F 32.5 °F 35.6 °F 81% 29.86 in 10.0 mi SSW 17.3 mph 25.3 mph N/A   Overcast
3:15 AM 41.0 °F 32.5 °F 35.6 °F 81% 29.86 in 6.0 mi South 17.3 mph - 0.01 in   Overcast
3:35 AM 41.0 °F 33.1 °F 37.4 °F 87% 29.86 in 7.0 mi SSW 15.0 mph - 0.01 in   Overcast
3:55 AM 41.0 °F 32.2 °F 35.6 °F 81% 29.84 in 4.0 mi SSW 18.4 mph 24.2 mph 0.06 in   Overcast
4:15 AM 39.2 °F 30.8 °F 37.4 °F 93% 29.83 in 4.0 mi SSW 15.0 mph 23.0 mph 0.02 in   Overcast
4:35 AM 41.0 °F 33.1 °F 37.4 °F 87% 29.83 in 4.0 mi SSW 15.0 mph - 0.03 in   Overcast
4:55 AM 39.2 °F 30.5 °F 37.4 °F 93% 29.82 in 3.0 mi SSW 16.1 mph - 0.03 in   Overcast
5:15 AM 39.2 °F 31.2 °F 35.6 °F 87% 29.83 in 6.0 mi SW 13.8 mph - N/A   Overcast
5:55 AM 39.2 °F 30.8 °F 35.6 °F 87% 29.82 in 10.0 mi WSW 15.0 mph - N/A   Overcast
6:15 AM 41.0 °F 34.3 °F 35.6 °F 81% 29.81 in 10.0 mi WSW 11.5 mph - N/A   Overcast
6:35 AM 39.2 °F 32.0 °F 35.6 °F 87% 29.81 in 10.0 mi WSW 11.5 mph - N/A   Overcast
6:55 AM 41.0 °F 34.3 °F 35.6 °F 81% 29.82 in 10.0 mi West 11.5 mph - N/A   Overcast
7:15 AM 41.0 °F 33.5 °F 35.6 °F 81% 29.82 in 10.0 mi WNW 13.8 mph - N/A   Overcast
7:35 AM 41.0 °F 32.8 °F 35.6 °F 81% 29.83 in 10.0 mi NW 16.1 mph - N/A   Overcast
7:55 AM 42.8 °F 35.4 °F 35.6 °F 76% 29.84 in 10.0 mi NW 15.0 mph - N/A   Overcast
8:15 AM 42.8 °F 35.1 °F 35.6 °F 76% 29.85 in 10.0 mi NW 16.1 mph - N/A   Scattered Clouds
8:35 AM 42.8 °F 35.1 °F 35.6 °F 76% 29.85 in 10.0 mi WNW 16.1 mph 21.9 mph N/A   Clear
8:55 AM 42.8 °F 33.8 °F 33.8 °F 70% 29.84 in 10.0 mi NW 21.9 mph 26.5 mph N/A   Clear
9:15 AM 44.6 °F 36.4 °F 33.8 °F 66% 29.84 in 10.0 mi NW 20.7 mph 25.3 mph N/A   Clear
9:35 AM 44.6 °F 35.9 °F 33.8 °F 66% 29.85 in 10.0 mi NW 23.0 mph 29.9 mph N/A   Clear
9:55 AM 44.6 °F 36.1 °F 33.8 °F 66% 29.86 in 10.0 mi NW 21.9 mph 28.8 mph N/A   Clear
10:15 AM 44.6 °F 35.9 °F 35.6 °F 71% 29.86 in 10.0 mi NW 23.0 mph 29.9 mph N/A   Partly Cloudy
10:35 AM 44.6 °F 35.5 °F 35.6 °F 71% 29.87 in 10.0 mi NW 25.3 mph 29.9 mph N/A   Mostly Cloudy
10:55 AM 44.6 °F 36.1 °F 33.8 °F 66% 29.87 in 10.0 mi NW 21.9 mph 33.4 mph N/A   Overcast
11:15 AM 44.6 °F 37.2 °F 33.8 °F 66% 29.87 in 10.0 mi NW 17.3 mph 23.0 mph N/A   Overcast
11:35 AM 44.6 °F 35.9 °F 33.8 °F 66% 29.87 in 10.0 mi NW 23.0 mph 29.9 mph N/A   Overcast
11:55 AM 44.6 °F 37.2 °F 33.8 °F 66% 29.86 in 10.0 mi NW 17.3 mph 26.5 mph N/A   Overcast
12:15 PM 44.6 °F 37.2 °F 33.8 °F 66% 29.86 in 10.0 mi WNW 17.3 mph 27.6 mph N/A   Overcast
12:35 PM 44.6 °F 37.2 °F 33.8 °F 66% 29.86 in 10.0 mi NW 17.3 mph 32.2 mph N/A   Overcast
12:55 PM 42.8 °F 35.1 °F 33.8 °F 70% 29.86 in 10.0 mi NW 16.1 mph 26.5 mph N/A   Overcast
1:15 PM 44.6 °F 36.6 °F 35.6 °F 71% 29.86 in 10.0 mi NW 19.6 mph 27.6 mph N/A   Overcast
1:35 PM 44.6 °F 36.6 °F 33.8 °F 66% 29.86 in 10.0 mi NW 19.6 mph 25.3 mph N/A   Overcast
1:55 PM 44.6 °F 36.6 °F 33.8 °F 66% 29.86 in 10.0 mi NW 19.6 mph 25.3 mph N/A   Overcast
2:15 PM 44.6 °F 35.7 °F 33.8 °F 66% 29.86 in 10.0 mi NW 24.2 mph 27.6 mph N/A   Overcast
2:35 PM 44.6 °F 36.4 °F 33.8 °F 66% 29.87 in 10.0 mi NW 20.7 mph 32.2 mph N/A   Mostly Cloudy
2:55 PM 44.6 °F 35.9 °F 33.8 °F 66% 29.88 in 10.0 mi NW 23.0 mph 27.6 mph N/A   Overcast
3:15 PM 44.6 °F 36.1 °F 33.8 °F 66% 29.88 in 10.0 mi WNW 21.9 mph 26.5 mph N/A   Overcast
3:35 PM 44.6 °F 36.4 °F 33.8 °F 66% 29.88 in 10.0 mi WNW 20.7 mph 27.6 mph N/A   Overcast
3:55 PM 42.8 °F 34.5 °F 33.8 °F 70% 29.89 in 10.0 mi WNW 18.4 mph 26.5 mph N/A   Overcast
4:15 PM 42.8 °F 34.0 °F 33.8 °F 70% 29.89 in 10.0 mi NW 20.7 mph - N/A   Overcast
4:35 PM 42.8 °F 35.1 °F 33.8 °F 70% 29.90 in 10.0 mi WNW 16.1 mph 23.0 mph N/A   Overcast
4:55 PM 42.8 °F 34.3 °F 33.8 °F 70% 29.90 in 10.0 mi NW 19.6 mph 26.5 mph N/A   Overcast
5:15 PM 42.8 °F 34.3 °F 33.8 °F 70% 29.91 in 10.0 mi NW 19.6 mph - N/A   Overcast
5:35 PM 42.8 °F 35.1 °F 33.8 °F 70% 29.92 in 10.0 mi NW 16.1 mph 23.0 mph N/A   Overcast
5:55 PM 42.8 °F 34.3 °F 35.6 °F 76% 29.92 in 10.0 mi NW 19.6 mph 23.0 mph N/A   Overcast
6:15 PM 42.8 °F 35.4 °F 35.6 °F 76% 29.92 in 10.0 mi NW 15.0 mph 20.7 mph N/A   Overcast
6:35 PM 42.8 °F 34.8 °F 35.6 °F 76% 29.93 in 10.0 mi NW 17.3 mph 20.7 mph N/A   Overcast
6:55 PM 42.8 °F 34.5 °F 35.6 °F 76% 29.93 in 10.0 mi NW 18.4 mph - N/A   Overcast
7:15 PM 42.8 °F 34.8 °F 33.8 °F 70% 29.92 in 10.0 mi NW 17.3 mph 25.3 mph N/A   Overcast
7:35 PM 42.8 °F 34.0 °F 33.8 °F 70% 29.93 in 10.0 mi NW 20.7 mph 28.8 mph N/A   Overcast
7:55 PM 42.8 °F 34.0 °F 33.8 °F 70% 29.93 in 10.0 mi NW 20.7 mph 24.2 mph N/A   Overcast
8:15 PM 42.8 °F 34.8 °F 33.8 °F 70% 29.94 in 10.0 mi NW 17.3 mph 29.9 mph N/A   Overcast
8:35 PM 42.8 °F 34.5 °F 33.8 °F 70% 29.94 in 10.0 mi NNW 18.4 mph 24.2 mph N/A   Overcast
8:55 PM 42.8 °F 34.5 °F 33.8 °F 70% 29.94 in 10.0 mi NNW 18.4 mph 23.0 mph N/A   Overcast
9:15 PM 41.0 °F 32.5 °F 33.8 °F 76% 29.95 in 10.0 mi NW 17.3 mph 24.2 mph N/A   Overcast
9:35 PM 41.0 °F 31.9 °F 33.8 °F 76% 29.95 in 10.0 mi NNW 19.6 mph - N/A   Overcast
9:55 PM 41.0 °F 31.4 °F 33.8 °F 76% 29.95 in 10.0 mi NW 21.9 mph 27.6 mph N/A   Overcast
10:15 PM 41.0 °F 32.8 °F 33.8 °F 76% 29.95 in 10.0 mi NW 16.1 mph 24.2 mph N/A   Overcast
10:35 PM 41.0 °F 32.8 °F 33.8 °F 76% 29.96 in 10.0 mi NNW 16.1 mph - N/A   Overcast
10:55 PM 41.0 °F 32.2 °F 33.8 °F 76% 29.96 in 10.0 mi NNW 18.4 mph 25.3 mph N/A   Overcast
11:15 PM 41.0 °F 33.1 °F 33.8 °F 76% 29.97 in 10.0 mi NNW 15.0 mph - N/A   Overcast
11:35 PM 41.0 °F 33.5 °F 33.8 °F 76% 29.98 in 10.0 mi NNW 13.8 mph 18.4 mph N/A   Overcast
11:55 PM 39.2 °F 31.6 °F 33.8 °F 81% 29.99 in 10.0 mi NNW 12.7 mph - N/A   Overcast